KLM1354 LKPR-EHAM

Flight info

Callsign KLM1354
Flight time 1h 5m
Altitude 36000
Route BALTU DCT DONAD DCT VARIK L602 SODRO DCT KATCE DCT APEBE DCT NORKU
Aircraft B738/M-SDE2E3FGHIRWXY/LB1

Departure

Time 2026-05-04 10:33
Airport Václav Havel Airport Prague (LKPR)

Arrival

Time 2026-05-04 11:38
Airport Amsterdam Airport Schiphol (EHAM)
Time Latitude Longitude Altitude Speed Heading
2026-05-04 10:11 50.10568 14.26327 1184 ft 0 kts 32°
2026-05-04 10:19 50.10567 14.26325 1184 ft 2 kts 32°
2026-05-04 10:19 50.10552 14.26318 1185 ft 4 kts 317°
2026-05-04 10:20 50.10542 14.26348 1185 ft 2 kts 272°
2026-05-04 10:20 50.10542 14.26349 1185 ft 1 kts 271°
2026-05-04 10:26 50.10537 14.26315 1185 ft 6 kts 250°
2026-05-04 10:26 50.10541 14.26215 1186 ft 12 kts 278°
2026-05-04 10:27 50.10528 14.26058 1187 ft 16 kts 250°
2026-05-04 10:27 50.10450 14.26079 1189 ft 14 kts 126°
2026-05-04 10:27 50.10392 14.26203 1190 ft 15 kts 127°
2026-05-04 10:27 50.10323 14.26345 1193 ft 18 kts 127°
2026-05-04 10:28 50.10238 14.26523 1197 ft 22 kts 127°
2026-05-04 10:28 50.10143 14.26720 1203 ft 23 kts 127°
2026-05-04 10:28 50.10048 14.26915 1208 ft 22 kts 127°
2026-05-04 10:28 50.09954 14.27108 1209 ft 22 kts 127°
2026-05-04 10:29 50.09862 14.27294 1210 ft 23 kts 130°
2026-05-04 10:29 50.09746 14.27478 1213 ft 25 kts 135°
2026-05-04 10:29 50.09623 14.27668 1220 ft 25 kts 135°
2026-05-04 10:29 50.09504 14.27850 1228 ft 23 kts 135°
2026-05-04 10:30 50.09389 14.28026 1233 ft 23 kts 136°
2026-05-04 10:30 50.09278 14.28197 1242 ft 22 kts 135°
2026-05-04 10:30 50.09183 14.28280 1238 ft 12 kts 183°
2026-05-04 10:30 50.09114 14.28218 1240 ft 12 kts 223°
2026-05-04 10:31 50.09083 14.28106 1235 ft 10 kts 275°
2026-05-04 10:31 50.09101 14.28049 1236 ft 0 kts 308°
2026-05-04 10:32 50.09763 14.26685 1207 ft 146 kts 307°
2026-05-04 10:33 50.10453 14.25253 1558 ft 172 kts 308°
2026-05-04 10:33 50.11187 14.23724 2329 ft 180 kts 307°
2026-05-04 10:33 50.11946 14.22117 3097 ft 187 kts 307°
2026-05-04 10:33 50.12732 14.20461 3785 ft 201 kts 306°
2026-05-04 10:34 50.13621 14.18629 4258 ft 218 kts 306°
2026-05-04 10:34 50.14561 14.16699 4816 ft 229 kts 306°
2026-05-04 10:34 50.15549 14.14658 5455 ft 243 kts 305°
2026-05-04 10:34 50.16601 14.12464 5912 ft 267 kts 305°
2026-05-04 10:35 50.17703 14.10066 6750 ft 272 kts 296°
2026-05-04 10:35 50.18175 14.07262 7691 ft 271 kts 275°
2026-05-04 10:35 50.18364 14.04277 8571 ft 275 kts 273°
2026-05-04 10:35 50.18542 14.01307 9491 ft 279 kts 273°
2026-05-04 10:36 50.18729 13.98260 10362 ft 282 kts 272°
2026-05-04 10:36 50.18925 13.95118 10702 ft 305 kts 273°
2026-05-04 10:36 50.19146 13.91682 10977 ft 327 kts 274°
2026-05-04 10:36 50.19384 13.88111 11605 ft 335 kts 274°
2026-05-04 10:37 50.19633 13.84497 12458 ft 339 kts 274°
2026-05-04 10:37 50.19895 13.80810 13279 ft 343 kts 274°
2026-05-04 10:37 50.20157 13.77067 14023 ft 348 kts 274°
2026-05-04 10:37 50.20420 13.73286 14746 ft 351 kts 274°
2026-05-04 10:39 50.22037 13.49894 18861 ft 372 kts 274°
2026-05-04 10:39 50.22222 13.47164 19265 ft 374 kts 274°
2026-05-04 10:39 50.22495 13.43137 19857 ft 377 kts 274°
2026-05-04 10:40 50.22771 13.39030 20450 ft 380 kts 274°
2026-05-04 10:40 50.23046 13.34915 21022 ft 384 kts 274°
2026-05-04 10:40 50.23324 13.30743 21564 ft 387 kts 274°
2026-05-04 10:40 50.23603 13.26535 22121 ft 390 kts 274°
2026-05-04 10:41 50.23881 13.22307 22688 ft 393 kts 274°
2026-05-04 10:41 50.24161 13.18031 23229 ft 396 kts 274°
2026-05-04 10:41 50.24441 13.13731 23709 ft 400 kts 274°
2026-05-04 10:41 50.24722 13.09383 24131 ft 403 kts 274°
2026-05-04 10:42 50.25001 13.05049 24604 ft 404 kts 274°
2026-05-04 10:42 50.25285 13.00623 25043 ft 406 kts 274°
2026-05-04 10:42 50.25563 12.96235 25467 ft 409 kts 274°
2026-05-04 10:42 50.25842 12.91828 25883 ft 411 kts 274°
2026-05-04 10:43 50.26124 12.87340 26300 ft 414 kts 274°
2026-05-04 10:44 50.28076 12.55427 28996 ft 430 kts 275°
2026-05-04 10:45 50.28355 12.50779 29376 ft 431 kts 275°
2026-05-04 10:45 50.28630 12.46134 29735 ft 433 kts 275°
2026-05-04 10:45 50.28938 12.41426 30119 ft 434 kts 278°
2026-05-04 10:45 50.29594 12.36800 30512 ft 433 kts 285°
2026-05-04 10:46 50.30676 12.32445 30972 ft 432 kts 294°
2026-05-04 10:46 50.31982 12.28242 31436 ft 430 kts 294°
2026-05-04 10:46 50.33289 12.24028 31818 ft 429 kts 294°
2026-05-04 10:46 50.34553 12.19852 32158 ft 429 kts 293°
2026-05-04 10:47 50.35861 12.15629 32559 ft 428 kts 295°
2026-05-04 10:47 50.37200 12.11501 32972 ft 426 kts 295°
2026-05-04 10:47 50.38554 12.07373 33359 ft 425 kts 295°
2026-05-04 10:47 50.39905 12.03238 33726 ft 424 kts 295°
2026-05-04 10:49 50.50284 11.75519 35778 ft 425 kts 308°
2026-05-04 10:49 50.52220 11.72038 35986 ft 423 kts 308°
2026-05-04 10:50 50.54144 11.68581 36002 ft 425 kts 308°
2026-05-04 10:52 50.69532 11.40298 35995 ft 425 kts 307°
2026-05-04 10:52 50.73352 11.33195 35997 ft 425 kts 307°
2026-05-04 10:54 50.88576 11.04696 36019 ft 424 kts 307°
2026-05-04 10:56 51.03746 10.75979 36021 ft 426 kts 306°
2026-05-04 10:57 51.07547 10.68733 36006 ft 427 kts 306°
2026-05-04 10:57 51.11356 10.61452 36007 ft 427 kts 306°
2026-05-04 10:58 51.15161 10.54157 36001 ft 428 kts 306°
2026-05-04 10:58 51.18947 10.46877 35990 ft 428 kts 306°
2026-05-04 10:59 51.22744 10.39559 35992 ft 429 kts 306°
2026-05-04 10:59 51.26229 10.31866 35987 ft 423 kts 294°
2026-05-04 11:00 51.28900 10.23551 35988 ft 423 kts 293°
2026-05-04 11:02 51.39498 9.90072 35992 ft 422 kts 293°
2026-05-04 11:05 51.59264 9.27026 35983 ft 420 kts 292°
2026-05-04 11:06 51.61857 9.18633 35998 ft 420 kts 292°
2026-05-04 11:06 51.64457 9.10185 35987 ft 420 kts 292°
2026-05-04 11:10 51.81864 8.50006 35997 ft 421 kts 288°
2026-05-04 11:12 51.91041 8.15696 35609 ft 410 kts 288°
2026-05-04 11:12 51.92161 8.11479 35240 ft 405 kts 288°
2026-05-04 11:12 51.93275 8.07280 34870 ft 401 kts 288°
2026-05-04 11:13 51.94367 8.03152 34505 ft 398 kts 287°
2026-05-04 11:13 51.95454 7.99034 34115 ft 395 kts 287°
2026-05-04 11:13 51.96535 7.94930 33724 ft 392 kts 287°
2026-05-04 11:13 51.97601 7.90872 33311 ft 389 kts 287°
2026-05-04 11:14 51.98657 7.86849 32918 ft 386 kts 287°
2026-05-04 11:14 51.99695 7.82887 32544 ft 382 kts 287°
2026-05-04 11:14 52.00731 7.78929 32181 ft 379 kts 287°
2026-05-04 11:16 52.07756 7.51868 29655 ft 369 kts 287°
2026-05-04 11:16 52.08746 7.48031 29265 ft 365 kts 287°
2026-05-04 11:16 52.09717 7.44266 28886 ft 362 kts 287°
2026-05-04 11:17 52.10684 7.40509 28506 ft 358 kts 287°
2026-05-04 11:17 52.11648 7.36756 28146 ft 356 kts 287°
2026-05-04 11:19 52.18806 7.08656 25384 ft 409 kts 288°
2026-05-04 11:19 52.19889 7.04391 24964 ft 407 kts 288°
2026-05-04 11:19 52.20975 7.00092 24547 ft 406 kts 288°
2026-05-04 11:19 52.22258 6.95985 24056 ft 413 kts 301°
2026-05-04 11:20 52.24062 6.92294 23548 ft 416 kts 306°
2026-05-04 11:20 52.25937 6.88708 23023 ft 412 kts 306°
2026-05-04 11:20 52.27766 6.85193 22595 ft 407 kts 306°
2026-05-04 11:20 52.29579 6.81631 22175 ft 402 kts 305°
2026-05-04 11:22 52.41393 6.57817 19510 ft 374 kts 305°
2026-05-04 11:22 52.43018 6.54529 19138 ft 372 kts 305°
2026-05-04 11:23 52.44646 6.51227 18771 ft 370 kts 305°
2026-05-04 11:23 52.46185 6.47844 18386 ft 365 kts 295°
2026-05-04 11:24 52.48004 6.24140 16111 ft 346 kts 271°
2026-05-04 11:25 52.48192 6.20161 15748 ft 344 kts 271°
2026-05-04 11:25 52.48379 6.16269 15389 ft 342 kts 272°
2026-05-04 11:25 52.48568 6.12375 15027 ft 341 kts 272°
2026-05-04 11:26 52.48937 6.04699 14319 ft 337 kts 271°
2026-05-04 11:27 52.50120 5.79338 11847 ft 330 kts 271°
2026-05-04 11:28 52.50289 5.75619 11449 ft 326 kts 271°
2026-05-04 11:28 52.50454 5.71997 11372 ft 313 kts 271°
2026-05-04 11:28 52.50612 5.68529 11255 ft 295 kts 271°
2026-05-04 11:28 52.50760 5.65239 10988 ft 284 kts 271°
2026-05-04 11:29 52.50902 5.61990 10529 ft 286 kts 270°
2026-05-04 11:29 52.51031 5.58764 10223 ft 284 kts 266°
2026-05-04 11:29 52.50660 5.55621 9895 ft 275 kts 242°
2026-05-04 11:29 52.49779 5.52951 9494 ft 268 kts 238°
2026-05-04 11:31 52.43392 5.35067 7070 ft 260 kts 238°
2026-05-04 11:33 52.37138 5.17533 4653 ft 245 kts 238°
2026-05-04 11:33 52.36279 5.15129 4318 ft 242 kts 238°
2026-05-04 11:33 52.35449 5.12811 3999 ft 238 kts 238°
2026-05-04 11:34 52.34613 5.10480 3692 ft 234 kts 238°
2026-05-04 11:34 52.33802 5.08222 3386 ft 229 kts 238°
2026-05-04 11:34 52.33029 5.05976 3119 ft 223 kts 246°
2026-05-04 11:34 52.32705 5.03549 2914 ft 217 kts 263°
2026-05-04 11:35 52.32599 5.01111 2633 ft 213 kts 264°
2026-05-04 11:35 52.32510 4.98729 2345 ft 205 kts 264°
2026-05-04 11:35 52.32428 4.96441 2059 ft 194 kts 264°
2026-05-04 11:35 52.32351 4.94333 1754 ft 181 kts 266°
2026-05-04 11:36 52.32282 4.92377 1614 ft 160 kts 266°
2026-05-04 11:36 52.32216 4.90621 1345 ft 150 kts 266°
2026-05-04 11:36 52.32155 4.88951 1137 ft 149 kts 266°
2026-05-04 11:36 52.32098 4.87256 949 ft 149 kts 266°
2026-05-04 11:37 52.32035 4.85574 736 ft 147 kts 267°
2026-05-04 11:37 52.31984 4.83924 549 ft 144 kts 268°
2026-05-04 11:37 52.31923 4.82272 338 ft 147 kts 269°
2026-05-04 11:37 52.31867 4.80581 148 ft 150 kts 268°
2026-05-04 11:38 52.31808 4.78876 0 ft 146 kts 268°
2026-05-04 11:38 52.31762 4.77491 -3 ft 78 kts 267°
2026-05-04 11:38 52.31701 4.76922 -4 ft 35 kts 240°
2026-05-04 11:38 52.31604 4.76692 -2 ft 18 kts 212°
2026-05-04 11:39 52.31487 4.76695 -2 ft 16 kts 141°
2026-05-04 11:39 52.31476 4.76867 -2 ft 17 kts 88°
2026-05-04 11:40 52.30839 4.77382 -2 ft 13 kts 267°
2026-05-04 11:41 52.30860 4.77300 -2 ft 5 kts 349°
2026-05-04 11:41 52.30888 4.77302 -2 ft 2 kts
2026-05-04 11:41 52.30896 4.77303 -2 ft 1 kts